TimeCST,TemperatureF,Dew PointF,Humidity,Sea Level PressureIn,VisibilityMPH,Wind Direction,Wind SpeedMPH,Gust SpeedMPH,PrecipitationIn,Events,Conditions,WindDirDegrees,DateUTC
12:15 AM,23.0,21.2,93,30.22,7.0,Calm,Calm,-,N/A,,Clear,0,2013-01-08 06:15:00
12:35 AM,23.0,21.2,93,30.21,7.0,Calm,Calm,-,N/A,,Clear,0,2013-01-08 06:35:00
12:55 AM,21.2,21.2,100,30.21,7.0,Calm,Calm,-,N/A,,Clear,0,2013-01-08 06:55:00
1:15 AM,23.0,21.2,93,30.21,7.0,Calm,Calm,-,N/A,,Clear,0,2013-01-08 07:15:00
1:35 AM,24.8,23.0,93,30.21,7.0,Calm,Calm,-,N/A,,Clear,0,2013-01-08 07:35:00
1:55 AM,26.6,23.0,86,30.21,10.0,Calm,Calm,-,N/A,,Clear,0,2013-01-08 07:55:00
2:15 AM,28.4,24.8,86,30.22,10.0,Calm,Calm,-,N/A,,Clear,0,2013-01-08 08:15:00
2:35 AM,26.6,23.0,86,30.22,10.0,Calm,Calm,-,N/A,,Clear,0,2013-01-08 08:35:00
2:55 AM,23.0,21.2,93,30.23,7.0,ESE,3.5,-,N/A,,Clear,110,2013-01-08 08:55:00
3:15 AM,23.0,21.2,93,30.22,7.0,Calm,Calm,-,N/A,,Clear,0,2013-01-08 09:15:00
3:35 AM,23.0,21.2,93,30.22,7.0,East,3.5,-,N/A,,Clear,90,2013-01-08 09:35:00
3:55 AM,24.8,23.0,93,30.22,7.0,Calm,Calm,-,N/A,,Clear,0,2013-01-08 09:55:00
4:15 AM,23.0,23.0,100,30.21,7.0,East,3.5,-,N/A,,Clear,90,2013-01-08 10:15:00
4:35 AM,21.2,19.4,93,30.21,7.0,Calm,Calm,-,N/A,,Clear,0,2013-01-08 10:35:00
4:55 AM,21.2,19.4,93,30.22,7.0,Calm,Calm,-,N/A,,Clear,0,2013-01-08 10:55:00
5:15 AM,21.2,19.4,93,30.22,7.0,Calm,Calm,-,N/A,,Clear,0,2013-01-08 11:15:00
5:35 AM,23.0,21.2,93,30.22,7.0,ENE,3.5,-,N/A,,Clear,70,2013-01-08 11:35:00
5:55 AM,23.0,21.2,93,30.23,7.0,Calm,Calm,-,N/A,,Clear,0,2013-01-08 11:55:00
6:15 AM,21.2,21.2,100,30.24,7.0,Calm,Calm,-,N/A,,Clear,0,2013-01-08 12:15:00
6:35 AM,21.2,19.4,93,30.25,7.0,Calm,Calm,-,N/A,,Clear,0,2013-01-08 12:35:00
6:55 AM,21.2,21.2,100,30.25,5.0,Calm,Calm,-,N/A,,Clear,0,2013-01-08 12:55:00
7:15 AM,21.2,19.4,93,30.25,4.0,ESE,3.5,-,N/A,,Clear,110,2013-01-08 13:15:00
7:35 AM,21.2,21.2,100,30.25,4.0,ESE,3.5,-,N/A,,Clear,120,2013-01-08 13:35:00
7:55 AM,24.8,23.0,93,30.26,4.0,Calm,Calm,-,N/A,,Clear,0,2013-01-08 13:55:00
8:15 AM,24.8,23.0,93,30.27,4.0,Calm,Calm,-,N/A,,Clear,0,2013-01-08 14:15:00
8:35 AM,26.6,26.6,100,30.27,4.0,East,3.5,-,N/A,,Clear,80,2013-01-08 14:35:00
8:55 AM,26.6,24.8,93,30.27,4.0,SE,4.6,-,N/A,,Clear,130,2013-01-08 14:55:00
9:15 AM,26.6,24.8,93,30.28,4.0,SSE,3.5,-,N/A,,Clear,150,2013-01-08 15:15:00
9:35 AM,28.4,26.6,93,30.28,4.0,Calm,Calm,-,N/A,,Clear,0,2013-01-08 15:35:00
9:55 AM,32.0,26.6,80,30.28,5.0,Calm,Calm,-,N/A,,Haze,0,2013-01-08 15:55:00
10:15 AM,33.8,28.4,81,30.27,7.0,ESE,3.5,-,N/A,,Clear,120,2013-01-08 16:15:00
10:35 AM,35.6,30.2,81,30.26,7.0,Calm,Calm,-,N/A,,Clear,0,2013-01-08 16:35:00
10:55 AM,37.4,30.2,75,30.26,7.0,Calm,Calm,-,N/A,,Clear,0,2013-01-08 16:55:00
11:15 AM,37.4,30.2,75,30.24,7.0,Calm,Calm,-,N/A,,Clear,0,2013-01-08 17:15:00
11:35 AM,37.4,30.2,75,30.23,10.0,Calm,Calm,-,N/A,,Clear,0,2013-01-08 17:35:00
11:55 AM,41.0,30.2,65,30.23,10.0,Calm,Calm,-,N/A,,Clear,0,2013-01-08 17:55:00
12:15 PM,41.0,30.2,65,30.22,10.0,Calm,Calm,-,N/A,,Clear,0,2013-01-08 18:15:00
12:35 PM,42.8,30.2,61,30.22,10.0,Calm,Calm,-,N/A,,Clear,0,2013-01-08 18:35:00
12:55 PM,44.6,30.2,57,30.21,10.0,Calm,Calm,-,N/A,,Clear,0,2013-01-08 18:55:00
1:15 PM,42.8,30.2,61,30.21,10.0,Calm,Calm,-,N/A,,Clear,0,2013-01-08 19:15:00
1:35 PM,44.6,30.2,57,30.20,10.0,Calm,Calm,-,N/A,,Clear,0,2013-01-08 19:35:00
1:55 PM,44.6,30.2,57,30.19,10.0,Calm,Calm,-,N/A,,Clear,0,2013-01-08 19:55:00
2:15 PM,44.6,32.0,61,30.19,10.0,Calm,Calm,-,N/A,,Clear,0,2013-01-08 20:15:00
2:35 PM,44.6,32.0,61,30.19,10.0,Calm,Calm,-,N/A,,Clear,0,2013-01-08 20:35:00
2:55 PM,-9999,-9999,N/A,30.20,10.0,Calm,Calm,-,N/A,,Clear,0,2013-01-08 20:55:00
3:15 PM,46.4,32.0,57,30.20,10.0,Calm,Calm,-,N/A,,Mostly Cloudy,0,2013-01-08 21:15:00
3:35 PM,44.6,32.0,61,30.19,10.0,ENE,3.5,-,N/A,,Overcast,70,2013-01-08 21:35:00
3:55 PM,44.6,32.0,61,30.19,10.0,Calm,Calm,-,N/A,,Overcast,0,2013-01-08 21:55:00
4:15 PM,42.8,32.0,66,30.20,10.0,Calm,Calm,-,N/A,,Overcast,0,2013-01-08 22:15:00
4:35 PM,42.8,32.0,66,30.19,10.0,Calm,Calm,-,N/A,,Scattered Clouds,0,2013-01-08 22:35:00
4:55 PM,37.4,32.0,81,30.19,10.0,Calm,Calm,-,N/A,,Clear,0,2013-01-08 22:55:00
5:15 PM,37.4,32.0,81,30.19,10.0,Calm,Calm,-,N/A,,Scattered Clouds,0,2013-01-08 23:15:00
5:35 PM,37.4,32.0,81,30.20,10.0,Calm,Calm,-,N/A,,Mostly Cloudy,0,2013-01-08 23:35:00
5:55 PM,37.4,32.0,81,30.19,10.0,Calm,Calm,-,N/A,,Mostly Cloudy,0,2013-01-08 23:55:00
6:15 PM,35.6,32.0,87,30.20,10.0,Calm,Calm,-,N/A,,Scattered Clouds,0,2013-01-09 00:15:00
6:35 PM,37.4,32.0,81,30.20,10.0,East,3.5,-,N/A,,Mostly Cloudy,90,2013-01-09 00:35:00
6:55 PM,37.4,32.0,81,30.19,10.0,Calm,Calm,-,N/A,,Scattered Clouds,0,2013-01-09 00:55:00
7:15 PM,35.6,32.0,87,30.19,10.0,Calm,Calm,-,N/A,,Scattered Clouds,0,2013-01-09 01:15:00
7:35 PM,35.6,32.0,87,30.19,10.0,Calm,Calm,-,N/A,,Overcast,0,2013-01-09 01:35:00
7:55 PM,37.4,32.0,81,30.18,10.0,Calm,Calm,-,N/A,,Overcast,0,2013-01-09 01:55:00
8:15 PM,35.6,32.0,87,30.18,10.0,Calm,Calm,-,N/A,,Overcast,0,2013-01-09 02:15:00
8:35 PM,37.4,32.0,81,30.19,10.0,Calm,Calm,-,N/A,,Overcast,0,2013-01-09 02:35:00
8:55 PM,37.4,32.0,81,30.20,10.0,Calm,Calm,-,N/A,,Overcast,0,2013-01-09 02:55:00
9:15 PM,37.4,32.0,81,30.20,10.0,Calm,Calm,-,N/A,,Overcast,0,2013-01-09 03:15:00
9:35 PM,37.4,32.0,81,30.20,10.0,Calm,Calm,-,N/A,,Overcast,0,2013-01-09 03:35:00
9:55 PM,37.4,32.0,81,30.19,10.0,Calm,Calm,-,N/A,,Overcast,0,2013-01-09 03:55:00
10:15 PM,37.4,32.0,81,30.19,10.0,Calm,Calm,-,N/A,,Overcast,0,2013-01-09 04:15:00
10:35 PM,37.4,32.0,81,30.19,10.0,Calm,Calm,-,N/A,,Mostly Cloudy,0,2013-01-09 04:35:00
10:55 PM,37.4,32.0,81,30.19,10.0,Calm,Calm,-,N/A,,Overcast,0,2013-01-09 04:55:00
11:15 PM,35.6,32.0,87,30.20,10.0,SE,4.6,-,N/A,,Mostly Cloudy,140,2013-01-09 05:15:00
11:35 PM,37.4,32.0,81,30.21,10.0,Calm,Calm,-,N/A,,Mostly Cloudy,0,2013-01-09 05:35:00
11:55 PM,37.4,32.0,81,30.21,10.0,Calm,Calm,-,N/A,,Mostly Cloudy,0,2013-01-09 05:55:00